Regional Weather Roundup
Issued by NWS Upton, NY

Current Version | Previous Version | Graphics & Text | Print | Product List | Glossary Off
Versions: 1 2 3 4 5 6 7 8 9 10 11 12 13 14 15 16 17 18 19 20 21 22 23 24 25 26 27 28 29 30 31 32 33 34 35 36 37 38 39 40 41 42 43 44 45 46 47 48 49 50

000
ASUS41 KOKX 291908
RWROKX

REGIONAL WEATHER ROUNDUP
NATIONAL WEATHER SERVICE NEW YORK NY
300 PM EDT WED JUL 29 2015

NOTE: "FAIR" INDICATES FEW OR NO CLOUDS BELOW 12,000 FEET WITH NO
SIGNIFICANT WEATHER AND/OR OBSTRUCTIONS TO VISIBILITY.

NYZ071-072-176-178-NJZ106-104-292000-
NEW YORK CITY METRO AREA


CITY           SKY/WX    TMP DP  RH WIND       PRES   REMARKS
CENTRAL PARK   SUNNY     94  63  35 W8        29.97F HX  95
LAGUARDIA APRT MOSUNNY   93  60  33 S13       29.94F HX  93
KENNEDY INTL   PTSUNNY   92  66  42 S16       29.97F HX  94
NEWARK/LIBERTY PTSUNNY   94  61  33 S12       29.94F HX  94
BRNX BOT. GARD   N/A     93  63  36 SW7       29.97R HX  94
TETERBORO      PTSUNNY   94  61  33 S15       29.93F HX  94
$$

NYZ177-179-078>081-292000-
LONG ISLAND NEW YORK

CITY           SKY/WX    TMP DP  RH WIND       PRES   REMARKS
FARMINGDALE    MOSUNNY   92  65  40 SW13      29.96F HX  94
ISLIP          PTSUNNY   89  66  46 SW14G22   29.94F HX  91
SHIRLEY        PTSUNNY   89  68  49 S13       29.97F HX  93
WESTHAMPTON    PTSUNNY   87  67  51 SW12      29.98S HX  90
MONTAUK POINT    N/A     87  73  62 SW8       29.97S HX  94
$$

NYZ052-065-067-292000-
HUDSON VALLEY

CITY           SKY/WX    TMP DP  RH WIND       PRES   REMARKS
WHITE PLAINS   MOSUNNY   91  62  37 VRB6      29.96F HX  91
NEWBURGH       NOT AVBL
MONTGOMERY     SUNNY     93  58  30 SW9       29.95F HX  92
POUGHKEEPSIE   SUNNY     93  59  31 VRB5      29.93F HX  92
ALBANY         PTSUNNY   93  61  34 SW5       29.93F HX  93
$$

NJZ001-105-106-008-010-013-015-019>022-104-292000-
NEW JERSEY

CITY           SKY/WX    TMP DP  RH WIND       PRES   REMARKS
NEWARK/LIBERTY PTSUNNY   94  61  33 S12       29.94F HX  94
TETERBORO      PTSUNNY   94  61  33 S15       29.93F HX  94
CALDWELL       MOSUNNY   93  62  35 VRB6      29.95F HX  93
MORRISTOWN     PTSUNNY   95  61  31 W9        29.95F HX  95
SOMERVILLE     MOSUNNY   94  61  33 NW6       29.93F HX  94
SUSSEX         SUNNY     90  62  39 VRB3      29.97F HX  90
ANDOVER          N/A     89  65  44 SW7       29.98F HX  91
TRENTON        PTSUNNY   90  67  46 SW7       29.96F HX  93
MILLVILLE      PTSUNNY   84  72  67 SW14G20   30.00R
ATLANTIC CITY  MOSUNNY   88  74  63 S10       29.98F HX  96
WRIGHTSTOWN    MOSUNNY   92  69  46 SW8       29.94F HX  98
TOMS RIVER       N/A     90  70  51 SW6       29.97S HX  95
BELMAR         MOSUNNY   90  70  51 S12G17    29.97F HX  95
$$

PAZ047>061-062-071-292000-
EASTERN PENNSYLVANIA

CITY           SKY/WX    TMP DP  RH WIND       PRES   REMARKS
PHILADELPHIA   PTSUNNY   92  69  47 SW9       29.97F HX  97
ALLENTOWN      PTSUNNY   91  68  46 SW8       29.97F HX  95
SCRANTON       SUNNY     90  63  40 S5        29.98F HX  91
$$

CTZ002-004>006-009-010-012-RIZ004-006-007-MAZ004-011-015-292000-
SOUTHERN NEW ENGLAND
 IN CT

CITY           SKY/WX    TMP DP  RH WIND       PRES   REMARKS
BRADLEY INTL   PTSUNNY   93  62  35 VRB3G17   29.93F HX  93
HARTFORD       MOSUNNY   93  67  42 VRB3      29.92F HX  96
DANBURY        SUNNY     90  59  35 SW7       29.97F
WTRBRY/OXFORD  MOSUNNY   88  68  51 VRB6      30.01F HX  91
BRIDGEPORT     MOSUNNY   91  65  41 SW9       29.95F HX  93
MERIDEN        MOSUNNY   94  62  34 MISG      29.94F HX  94
NEW HAVEN      PTSUNNY   89  65  44 S7        29.95F HX  91
CHESTER        FAIR      90  66  45 S6        29.97F HX  92
GROTON         MOSUNNY   82  69  64 S8        29.94F
WILLIMANTIC    MOSUNNY   92  64  39 SW7       29.94S HX  93

 IN RI

CITY           SKY/WX    TMP DP  RH WIND       PRES   REMARKS
PROVIDENCE     PTSUNNY   93  67  42 W14       29.93S HX  96
BLOCK ISLAND     N/A     82  72  69 SW14      29.98S
WESTERLY       MOSUNNY   89  67  47 SW7       29.95F HX  92

 IN MA

CITY           SKY/WX    TMP DP  RH WIND       PRES   REMARKS
BOSTON         PTSUNNY   87  66  49 E12       29.91S
WORCESTER      MOSUNNY   88  63  43 W9        29.98F
WESTFIELD      MOSUNNY   93  65  39 W8        29.93F HX  95
PROVINCETOWN   MOSUNNY   90  61  37 S7        29.93S
NANTUCKET      PTSUNNY   82  71  69 SW13      29.96S
$$

ANZ330-335-338-340-345-350-353-355-292000-
COASTAL MARINE OBSERVATIONS


STATION/POSITION TIME  SKY/WX   TEMP    WIND        PRES    VSBY  WAVE
                                AIR SEA DIR/SP/G                  HT/PER
                 (UTC)          (F)     (DEG/KT/KT) (MB)    (MI)  (FT/S)
NY HARB ENTRANCE 1850            80 78  190/ 12/ 14 1014.3          2/ 7
4S FIRE IS       NOT AVBL
20S FIRE ISLAND  1850            77 75  220/  8/ 10 1014.6          2/ 7
GREAT SOUTH BAY  1830            80 82  230/ 10/ 16   N/A
23SW MTP         1850            76 74  220/  8/ 10 1014.4          2/10
HUDSON CANYON    NOT AVBL
KINGS POINT      1800            89                   N/A
EXECUTION ROCKS  1800            83     100/  2/  4   N/A
CENTRAL LI SOUND NOT AVBL
EASTERN LI SOUND 1800            76 69  220/  4/  6   N/A
ROBBINS REEF     1800            85                   N/A
$$


>>>>>>>>>>>>>>>>>>>>>>>>>>>> KEY <<<<<<<<<<<<<<<<<<<<<<<<<<<
>                                                          <
>     SKY/WX - SKY CONDITION/PRESENT WEATHER               <
>     TMP    - TEMPERATURE IN FAHRENHEIT                   <
>     DP     - DEWPOINT IN FAHRENHEIT                      <
>     RH     - RELATIVE HUMIDITY IN PERCENT                <
>     WIND   - DIRECTION AND SPEED IN MPH                  <
>     PRES   - MEAN SEA LEVEL PRESSURE IN INCHES OF HG     <
>     WCI    - WIND CHILL INDEX                            <
>     VSB    - VISIBILITY IN MILES                         <
>     HX     - HEAT INDEX                                  <
>     TC     - TEMPERATURE IN CELSIUS                      <
>     VRB    - VARIABLE WIND DIRECTION                     <
>                                                          <
>>>>>>>>>>>>>>>>>>>>>>>>>>>> KEY <<<<<<<<<<<<<<<<<<<<<<<<<<<




USA.gov is the U.S. government's official web portal to all federal, state and local government web resources and services.